Weather History for New Haven, CT

Change the Weather History Date:

Sunday, February 3, 2013

  Actual Average Record
Temperature  
Mean Temperature 26 °F -  
Max Temperature 33 °F 37 °F 39 °F (2014)
Min Temperature 19 °F 23 °F 23 °F (2014)
Degree Days  
Heating Degree Days 39    
Moisture  
Dew Point 16 °F    
Average Humidity 65    
Maximum Humidity 92    
Minimum Humidity 46    
Precipitation  
Precipitation 0.00 in - - ()
Sea Level Pressure  
Sea Level Pressure 29.88 in    
Wind  
Wind Speed 5 mph (NNW)    
Max Wind Speed 8 mph    
Max Gust Speed -    
Visibility 10 miles    
Events Snow    
Averages and records for this station are not official NWS values.
T = Trace of Precipitation, MM = Missing Value Source: NWS Daily Summary

Daily Weather History Graph

Daily Weather History Graph

Search for Another Location

Airport:

Trip Planner

Search our weather history database for the weather conditions in past years. The results will help you decide how hot, cold, wet, or windy it might be!

Date:

Astronomy

Feb. 03, 2013 Rise Set
Actual Time 7:00 AM EST 5:10 PM EST
Civil Twilight 6:31 AM EST 5:39 PM EST
Nautical Twilight 5:58 AM EST 6:12 PM EST
Astronomical Twilight 5:26 AM EST 6:45 PM EST
Moon 12:24 AM EST (2/3) 10:45 AM EST (2/3)
Length of Visible Light 11h 08m
Length of Day
10h 10m
Waning Gibbous, 49% of the Moon is Illuminated
Feb 3
Waning Gibbous
Feb 10
New
Feb 17
First Quarter
Feb 25
Full
Mar 4
Last Quarter

Hourly Weather History & Observations

Time (EST) Temp. Windchill Dew Point Humidity Pressure Visibility Wind Dir Wind Speed Gust Speed Precip Events Conditions
12:53 AM 25.0 °F 19.3 °F 19.9 °F 81% 30.05 in 4.0 mi NW 4.6 mph - 0.00 in Snow Light Snow
1:53 AM 25.0 °F 20.7 °F 19.0 °F 78% 30.03 in 10.0 mi NW 3.5 mph - 0.00 in   Overcast
2:53 AM 23.0 °F 18.4 °F 18.0 °F 81% 30.01 in 10.0 mi NNE 3.5 mph - N/A   Mostly Cloudy
3:53 AM 23.0 °F 17.0 °F 18.0 °F 81% 29.98 in 8.0 mi North 4.6 mph - N/A   Overcast
4:53 AM 24.1 °F 17.0 °F 19.0 °F 81% 29.97 in 8.0 mi NNE 5.8 mph - N/A   Overcast
5:41 AM 23.0 °F 15.8 °F 17.6 °F 80% 29.95 in 9.0 mi NNE 5.8 mph - N/A   Mostly Cloudy
5:48 AM 21.2 °F 13.6 °F 17.6 °F 86% 29.95 in 10.0 mi NNE 5.8 mph - N/A   Partly Cloudy
5:53 AM 21.9 °F 14.5 °F 17.1 °F 82% 29.95 in 10.0 mi NNE 5.8 mph - N/A   Scattered Clouds
6:53 AM 21.0 °F - 17.1 °F 85% 29.97 in 10.0 mi Calm Calm - N/A   Mostly Cloudy
7:53 AM 19.9 °F - 18.0 °F 92% 29.98 in 7.0 mi Calm Calm - N/A   Mostly Cloudy
8:53 AM 25.0 °F 17.1 °F 18.0 °F 75% 29.96 in 10.0 mi NNE 6.9 mph - N/A   Mostly Cloudy
9:53 AM 27.0 °F 18.7 °F 17.1 °F 66% 29.94 in 10.0 mi ENE 8.1 mph - N/A   Overcast
10:53 AM 28.9 °F 25.2 °F 16.0 °F 58% 29.91 in 10.0 mi NE 3.5 mph - N/A   Mostly Cloudy
11:53 AM 30.9 °F 27.5 °F 16.0 °F 54% 29.87 in 10.0 mi Variable 3.5 mph - N/A   Mostly Cloudy
12:53 PM 32.0 °F - 15.1 °F 50% 29.83 in 10.0 mi Calm Calm - N/A   Mostly Cloudy
1:53 PM 33.1 °F 28.7 °F 14.0 °F 46% 29.80 in 10.0 mi North 4.6 mph - N/A   Overcast
2:53 PM 33.1 °F 26.9 °F 14.0 °F 46% 29.79 in 10.0 mi WNW 6.9 mph - N/A   Overcast
3:53 PM 33.1 °F 26.9 °F 14.0 °F 46% 29.78 in 10.0 mi NNW 6.9 mph - N/A   Mostly Cloudy
4:53 PM 32.0 °F 28.7 °F 14.0 °F 48% 29.76 in 10.0 mi Variable 3.5 mph - N/A   Clear
5:53 PM 30.9 °F 24.3 °F 14.0 °F 50% 29.78 in 10.0 mi WNW 6.9 mph - N/A   Partly Cloudy
6:53 PM 30.9 °F 23.5 °F 14.0 °F 50% 29.78 in 10.0 mi WNW 8.1 mph - N/A   Clear
7:53 PM 28.9 °F 22.8 °F 12.9 °F 51% 29.78 in 10.0 mi NW 5.8 mph - N/A   Clear
8:53 PM 28.9 °F 22.8 °F 14.0 °F 54% 29.80 in 10.0 mi WNW 5.8 mph - N/A   Clear
9:53 PM 28.0 °F 20.0 °F 15.1 °F 58% 29.80 in 10.0 mi WNW 8.1 mph - N/A   Clear
10:53 PM 28.0 °F 20.8 °F 15.1 °F 58% 29.79 in 10.0 mi WNW 6.9 mph - N/A   Clear
11:53 PM 27.0 °F 23.0 °F 15.1 °F 61% 29.79 in 10.0 mi WNW 3.5 mph - N/A   Mostly Cloudy